Hourly Weather Roundup
Issued by NWS Central Illinois

Home | Current Version | Previous Version | Text Only | Print | Product List | Glossary On
Versions: 1 2 3 4 5 6 7 8 9 10 11 12 13 14 15 16 17 18 19 20 21 22 23 24 25 26 27 28 29 30 31 32 33 34 35 36 37 38 39 40 41 42 43 44 45 46 47 48 49 50
000
NZUS43 KILX 270710
HWRILX

AREA WEATHER ROUNDUP
NATIONAL WEATHER SERVICE, LINCOLN IL
200 AM CDT TUE SEP 27 2016


CITY           SKY/WX    TMP DP  RH WIND       PRES   REMARKS
BLOOMINGTON    CLEAR     53  42  66 SW9       30.00S
CHAMPAIGN      PTCLDY    52  41  66 SW6       30.01S
DANVILLE       CLEAR     53  42  67 SW7       29.97F
DECATUR        CLEAR     57  42  57 SW9       30.02F
EFFINGHAM      CLEAR     49  49  99 CALM      30.07S
FLORA          CLEAR     50  47  90 CALM      30.06F
GALESBURG        N/A    N/A N/A N/A MISG        N/A
JACKSONVILLE   CLEAR     55  44  67 SW9       30.04R
LACON          PTCLDY    58  41  53 SW7       29.95F
LAWRENCEVILLE  CLEAR     51  46  83 CALM      30.06S
LITCHFIELD     CLEAR     47  36  66 SW6       30.06S
$$


CITY           SKY/WX    TMP DP  RH WIND       PRES   REMARKS
LINCOLN        CLEAR     56  44  65 SW3       30.01S
MACOMB         CLEAR     53  46  75 W8        30.02F
MATTOON        CLEAR     56  41  57 SW9       30.03S
MT CARMEL AP   CLEAR     49  47  91 W5        30.06S
OLNEY-NOBLE AP CLEAR     46  46 100 CALM      30.06F
PARIS          CLEAR     53  43  68 CALM      30.03F
PEORIA         CLEAR     55  45  68 W7        29.99S
PONTIAC        CLEAR     55  46  71 SW10      29.96F
RANTOUL        CLEAR     55  43  64 SW7       29.99S
ROBINSON       CLEAR     50  45  83 CALM      30.06S
SPRINGFIELD    CLEAR     53  44  71 SW5       30.03S
TAYLORVILLE    CLEAR     57  42  57 SW7       30.04S
$$

...REGIONAL REPORTS...


CITY           SKY/WX    TMP DP  RH WIND       PRES   REMARKS
CHICAGO O`HARE CLEAR     55  38  52 SW9       29.88F
KANKAKEE       CLEAR     49  42  77 SW8       29.95S
MOLINE         CLEAR     54  43  66 SW9       29.95S
MOUNT STERLING CLEAR     53  44  71 SW7       30.02F
MOUNT VERNON   CLEAR     46  43  87 CALM      30.08S
PITTSFIELD     PTCLDY    58  45  62 SW7       30.05S
QUINCY         CLEAR     52  45  77 SW7       30.03F
ROCKFORD       CLEAR     54  41  61 SW8       29.91S
$$


CITY           SKY/WX    TMP DP  RH WIND       PRES   REMARKS
BURLINGTON     CLEAR     56  46  69 W7        29.99S
CEDAR RAPIDS   CLEAR     52  43  71 NW10      29.94F
DES MOINES     CLEAR     53  45  74 W7        30.00S
KIRKSVILLE     CLEAR     55  45  68 W5        30.05F
OTTUMWA        CLEAR     51  42  71 SW8       30.00S
ST LOUIS       CLEAR     59  43  55 SW5       30.07F
$$


CITY           SKY/WX    TMP DP  RH WIND       PRES   REMARKS
TERRE HAUTE    CLEAR     48  43  82 SW3       30.03F
EVANSVILLE     CLEAR     50  47  89 W5        30.08S
INDIANAPOLIS   CLEAR     49  44  83 SW7       30.01F
LAFAYETTE      CLEAR     49  43  80 W5        29.98F
MADISON        CLEAR     54  36  50 VRB5      29.83R
MILWAUKEE      CLEAR     56  37  49 SW10      29.82S
$$





USA.gov is the U.S. government's official web portal to all federal, state and local government web resources and services.